Location: Albany
(35.0000°S, 118.0000°E)
Time: 00:39:41
(UTC-04:00)

JAS-1B - Pass Details

Date: 26 February 2018
Orbit: 912 x 1743 km, 99.1° (Epoch: 18 June)

Event Time Altitude Azimuth Distance (km) Brightness Sun altitude
Rises 11:13:01 0° 170° (S) 4,621 11.2 -46.4°
Reaches altitude 10° 11:15:44 10° 172° (S) 3,729 10.6 -46.4°
Enters shadow 11:21:58 50° 191° (S) 2,028 8.7 -46.4°
